Home   Weather   Barranquilla   Past weeks

Flag for Colombia Past Weather in Barranquilla, Colombia — Yesterday and Last 2 Weeks

Now
81 °F

Passing clouds.


Feels Like: 88 °F
Forecast: 81 / 91 °F
Wind: 5 mph from Northwest

Location: Barranquilla / Ernestocortissoz

Current Time: Jul 23, 2017 at 2:06:43 am

Latest Report: Jul 23, 2017 at 1:00 am


Visibility: N/A

Pressure: 29.83 "Hg

Humidity: 94%

Dew Point: 79 °F

Location of BarranquillaLocation

Past Weather in Barranquilla — Graph

°F

Barranquilla Temperature Yesterday

Maximum temperature yesterday: 95 °F (at 1:00 pm)
Minimum temperature yesterday: 79 °F (at 4:00 am)
Average temperature yesterday: 85 °F

High & Low Weather Summary for the Past Weeks

 TemperatureHumidityPressure
High95 °F (Jul 8, 12:00 pm)100% (Jul 11, 7:00 pm)29.96 "Hg (Jul 11, 7:00 pm)
Low73 °F (Jul 12, 6:00 am)56% (Jul 22, 12:00 pm)29.74 "Hg (Jul 10, 3:00 pm)
Average83 °F86%29.85 "Hg
* Reported Jul 7 11:00 pm — Jul 22 11:00 pm, Barranquilla. Weather by CustomWeather, © 2017

Note: Actual official high and low records may vary slightly from our data, if they occured in-between our weather recording intervals... More about our weather records

Advertising

Barranquilla Weather History for the Previous 24 Hours

Scroll right to see more
 ConditionsComfort  
Time TempWeatherWind HumidityBarometerVisibility
11:00 pm
Sat, Jul 22
82 °FPassing clouds.12 mph89%29.86 "HgN/A
10:00 pm82 °FPassing clouds.12 mph89%29.86 "HgN/A
9:00 pm82 °FPassing clouds.10 mph89%29.85 "HgN/A
8:00 pm82 °FPassing clouds.10 mph89%29.83 "HgN/A
7:00 pm82 °FPassing clouds.14 mph89%29.82 "HgN/A
6:00 pm84 °FPassing clouds.14 mph84%29.79 "HgN/A
5:00 pm88 °FPassing clouds.12 mph70%29.77 "HgN/A
4:00 pm90 °FPassing clouds.10 mph71%29.77 "HgN/A
3:00 pm91 °FPassing clouds.15 mph67%29.78 "HgN/A
2:00 pm93 °FPassing clouds.14 mph67%29.81 "HgN/A
1:00 pm95 °FPassing clouds.8 mph56%29.83 "HgN/A
12:00 pm93 °FPassing clouds.7 mph56%29.85 "HgN/A
11:00 am90 °FPassing clouds.9 mph63%29.87 "HgN/A
10:00 am90 °FPassing clouds.9 mph63%29.88 "HgN/A
9:00 am86 °FPassing clouds.9 mph75%29.88 "HgN/A
8:00 am84 °FScattered clouds.9 mph89%29.87 "HgN/A
7:00 am81 °FFog.6 mph94%29.85 "Hg5 mi
6:00 am79 °FFog.3 mph94%29.82 "Hg4 mi
5:00 am79 °FClear.2 mph94%29.81 "Hg10 mi
4:00 am79 °FClear.3 mph94%29.81 "Hg10 mi
3:00 am81 °FWarm.5 mph89%29.82 "HgN/A
2:00 am81 °FClear.6 mph89%29.83 "Hg10 mi
Weather by CustomWeather, © 2017

See weather overviewHow to use our weather pages